Home   Weather   Zárate   Past weeks

Flag for Argentina Past Weather in Zárate, Buenos Aires, Argentina — Yesterday and Last 2 Weeks

Now
61 °F

Clear.


Feels Like: 61 °F
Forecast: 62 / 78 °F
Wind: 2 mph from Northeast

Location: Buenos Aires Airport

Current Time: Jul 28, 2017 at 2:06:17 am

Latest Report: Jul 28, 2017 at 1:00 am


Visibility: 10 mi

Pressure: 30.01 "Hg

Humidity: 88%

Dew Point: 57 °F

Location of ZárateLocation

Past Weather in Zárate — Graph

°F

Zárate Temperature Yesterday

Maximum temperature yesterday: 68 °F (at 2:00 pm)
Minimum temperature yesterday: 57 °F (at 2:00 am)
Average temperature yesterday: 62 °F

High & Low Weather Summary for the Past Weeks

 TemperatureHumidityPressure
High75 °F (Jul 13, 3:25 pm)100% (Jul 13, 1:00 am)30.42 "Hg (Jul 13, 1:00 am)
Low37 °F (Jul 17, 6:00 am)23% (Jul 18, 2:00 pm)29.56 "Hg (Jul 15, 7:38 am)
Average55 °F73%30.06 "Hg
* Reported Jul 13 1:00 am — Jul 28 1:00 am, Zárate. Weather by CustomWeather, © 2017

Note: Actual official high and low records may vary slightly from our data, if they occured in-between our weather recording intervals... More about our weather records

Advertising

Zárate Weather History for the Previous 24 Hours

Scroll right to see more
 ConditionsComfort  
Time TempWeatherWind HumidityBarometerVisibility
1:00 am
Fri, Jul 28
61 °FClear.2 mph88%30.01 "Hg10 mi
12:00 am61 °FClear.2 mph94%30.01 "Hg10 mi
11:00 pm
Thu, Jul 27
63 °FClear.2 mph88%30.01 "Hg10 mi
10:00 pm63 °FPassing clouds.6 mph88%30.01 "HgN/A
9:00 pm64 °FClear.7 mph83%30.01 "Hg10 mi
8:00 pm68 °FClear.7 mph73%30.01 "Hg10 mi
7:00 pm68 °FClear.7 mph73%30.01 "Hg10 mi
6:00 pm66 °FPassing clouds.6 mph78%30.01 "HgN/A
5:00 pm68 °FSunny.3 mph73%30.01 "Hg10 mi
4:00 pm68 °FSunny.No wind73%30.01 "Hg10 mi
3:00 pm68 °FPassing clouds.8 mph78%30.01 "HgN/A
2:00 pm68 °FPassing clouds.3 mph73%30.04 "HgN/A
1:00 pm64 °FSunny.3 mph88%30.09 "Hg10 mi
12:00 pm63 °FClear.5 mph88%30.09 "Hg6 mi
11:00 am61 °FClear.5 mph94%30.09 "Hg6 mi
10:00 am61 °FClear.3 mph88%30.09 "Hg5 mi
9:00 am59 °FClear.6 mph94%30.09 "Hg5 mi
8:00 am59 °FClear.7 mph94%30.09 "Hg4 mi
7:00 am57 °FFog.6 mph100%30.09 "Hg3 mi
6:00 am57 °FFog.6 mph100%30.09 "Hg3 mi
5:13 am57 °FFog.5 mph100%30.07 "Hg2 mi
4:00 am57 °FFog.7 mph100%30.09 "Hg0 mi
3:00 am57 °FFog.8 mph100%30.09 "Hg0 mi
2:00 am57 °FFog.6 mph100%30.12 "Hg0 mi
Weather by CustomWeather, © 2017

See weather overviewHow to use our weather pages